Date String (YYYY-MM-DD hh:mm:ss) UTC,Instrument flags,Ambient pressure (hPa),Sample flow (lpm),Bypass flow (lpm),Sample temperature (°C),Ambient temperature (°C),ASC tube jacket temperature (°C),LED temperature (°C),Box temperature (°C),Sample RH (%),Span deviation,Mass concentration (μg/m³),Mass concentration (μg/m³),Mass concentration (μg/m³)
DateTimeUTC,F1_M11,P_M11,Q1_M11,Q2_M11,T1_M11,T2_M11,T3_M11,T4_M11,T5_M11,U1_M11,ZSPAN_M11,X2_M11,X0_M11,X1_M11
2021-11-30 04:00:00,,0827.2,4.99,0.00,29.7,28.9,00.0,38.7,31.5,11.1,0000.0,0000.54,0001.12,0000.32
2021-11-30 04:01:00,,0827.2,5.00,0.00,29.7,28.9,00.0,38.7,31.5,11.1,0000.0,0000.53,0003.62,0000.32
2021-11-30 04:02:00,,0827.2,5.00,0.00,29.8,29.0,00.0,38.7,31.5,11.1,0000.0,0000.54,0004.65,0000.32
2021-11-30 04:03:00,,0827.2,4.99,0.00,29.8,29.0,00.0,38.7,31.5,11.1,0000.0,0000.54,0005.30,0000.32
2021-11-30 04:04:00,,0827.2,4.99,0.00,29.8,29.0,00.0,38.7,31.5,11.1,0000.0,0000.51,0005.69,0000.32
2021-11-30 04:05:00,,0827.2,5.00,0.00,29.8,29.0,00.0,38.7,31.5,11.1,0000.0,0000.50,0005.67,0000.32
2021-11-30 04:06:00,,0827.2,5.00,0.00,29.8,29.0,00.0,38.8,31.5,11.1,0000.0,0000.51,0005.68,0000.33
2021-11-30 04:07:00,,0827.2,5.00,0.00,29.8,29.0,00.0,38.8,31.4,11.1,0000.0,0000.54,0005.78,0000.33
2021-11-30 04:08:00,,0827.2,5.00,0.00,29.8,29.0,00.0,38.8,31.5,11.0,0000.0,0000.52,0005.79,0000.33
2021-11-30 04:09:00,,0827.2,4.99,0.00,29.8,29.0,00.0,38.8,31.5,11.1,0000.0,0000.54,0006.53,0000.33
2021-11-30 04:10:00,,0827.2,5.01,0.00,29.8,29.0,00.0,38.8,31.5,11.1,0000.0,0000.54,0006.94,0000.33
2021-11-30 04:11:00,,0827.2,5.01,0.00,29.8,28.9,00.0,38.8,31.5,11.1,0000.0,0000.57,0007.05,0000.34
2021-11-30 04:12:00,,0827.2,5.01,0.00,29.8,28.9,00.0,38.8,31.5,11.2,0000.0,0000.58,0005.03,0000.34
2021-11-30 04:13:00,,0827.2,5.01,0.00,29.8,28.9,00.0,38.8,31.5,11.1,0000.0,0000.57,0003.60,0000.34
2021-11-30 04:14:00,,0827.2,5.00,0.00,29.8,29.0,00.0,38.8,31.5,11.1,0000.0,0000.57,0002.97,0000.34
2021-11-30 04:15:00,,0827.2,5.00,0.00,29.8,29.0,00.0,38.8,31.6,11.1,0000.0,0000.55,0002.37,0000.34
2021-11-30 04:16:00,,0827.2,5.00,0.00,29.9,29.0,00.0,38.8,31.6,11.1,0000.0,0000.55,0002.33,0000.33
2021-11-30 04:17:00,,0827.2,5.01,0.00,29.9,29.0,00.0,38.8,31.6,11.1,0000.0,0000.56,0002.35,0000.33
2021-11-30 04:18:00,,0827.2,4.99,0.00,29.9,29.0,00.0,38.8,31.6,11.1,0000.0,0000.54,0002.26,0000.33
2021-11-30 04:19:00,,0827.2,5.01,0.00,29.9,29.0,00.0,38.8,31.6,11.0,0000.0,0000.53,0002.29,0000.32
2021-11-30 04:20:00,,0827.2,4.99,0.00,29.9,29.0,00.0,38.9,31.6,11.0,0000.0,0000.54,0001.81,0000.32
2021-11-30 04:21:00,,0827.2,5.00,0.00,29.9,29.1,00.0,38.9,31.6,11.0,0000.0,0000.54,0001.25,0000.32
2021-11-30 04:22:00,,0827.2,5.00,0.00,29.9,29.1,00.0,38.9,31.6,11.1,0000.0,0000.52,0001.13,0000.32
2021-11-30 04:23:00,,0827.2,5.01,0.00,29.9,29.0,00.0,38.9,31.6,11.1,0000.0,0000.50,0001.03,0000.31
2021-11-30 04:24:00,,0827.2,4.98,0.00,29.9,29.0,00.0,38.9,31.6,11.1,0000.0,0000.47,0000.88,0000.31
2021-11-30 04:25:00,,0827.2,5.00,0.00,29.9,29.0,00.0,38.9,31.6,11.1,0000.0,0000.45,0000.83,0000.30
2021-11-30 04:26:00,,0827.2,5.00,0.00,29.9,29.0,00.0,38.9,31.6,11.1,0000.0,0000.43,0000.77,0000.31
2021-11-30 04:27:00,,0827.2,5.01,0.00,29.9,29.0,00.0,38.9,31.6,11.1,0000.0,0000.44,0000.78,0000.31
2021-11-30 04:28:00,,0827.3,5.00,0.00,29.9,29.0,00.0,38.9,31.6,11.1,0000.0,0000.46,0000.89,0000.31
2021-11-30 04:29:00,,0827.4,5.00,0.00,29.9,29.0,00.0,38.9,31.6,11.1,0000.0,0000.46,0000.89,0000.31
2021-11-30 04:30:00,,0827.4,5.00,0.00,29.9,29.0,00.0,38.9,31.6,11.1,0000.0,0000.47,0000.90,0000.31
2021-11-30 04:31:00,,0827.4,4.99,0.00,29.9,29.0,00.0,38.9,31.6,11.1,0000.0,0000.44,0000.80,0000.32
2021-11-30 04:32:00,,0827.4,5.02,0.00,30.0,29.0,00.0,38.9,31.6,11.0,0000.0,0000.44,0000.81,0000.32
2021-11-30 04:33:00,,0827.4,4.99,0.00,29.9,29.0,00.0,38.9,31.6,11.0,0000.0,0000.46,0000.83,0000.32
2021-11-30 04:34:00,,0827.4,5.01,0.00,30.0,29.0,00.0,39.0,31.6,11.0,0000.0,0000.49,0000.89,0000.32
2021-11-30 04:35:00,,0827.5,5.00,0.00,30.0,29.0,00.0,39.0,31.6,11.0,0000.0,0000.53,0000.97,0000.33
2021-11-30 04:36:00,,0827.4,5.00,0.00,30.0,29.0,00.0,39.0,31.6,11.0,0000.0,0000.57,0001.04,0000.34
2021-11-30 04:37:00,,0827.5,5.00,0.00,30.0,29.0,00.0,39.0,31.7,11.0,0000.0,0000.58,0001.05,0000.34
2021-11-30 04:38:00,,0827.4,5.00,0.00,30.0,29.0,00.0,39.0,31.7,11.0,0000.0,0000.59,0001.06,0000.34
2021-11-30 04:39:00,,0827.4,4.99,0.00,30.0,29.0,00.0,39.0,31.6,11.0,0000.0,0000.54,0000.92,0000.34
2021-11-30 04:40:00,,0827.5,5.01,0.00,30.0,29.0,00.0,39.0,31.6,11.0,0000.0,0000.54,0000.88,0000.34
2021-11-30 04:41:00,,0827.5,5.00,0.00,30.0,29.0,00.0,39.0,31.6,11.0,0000.0,0000.55,0000.89,0000.34
2021-11-30 04:42:00,,0827.5,4.99,0.00,30.0,29.0,00.0,39.0,31.7,11.0,0000.0,0000.55,0000.89,0000.34
2021-11-30 04:43:00,,0827.5,4.99,0.00,30.0,29.0,00.0,39.0,31.6,11.0,0000.0,0000.56,0000.89,0000.33
2021-11-30 04:44:00,,0827.5,4.99,0.00,30.0,29.0,00.0,39.0,31.6,11.0,0000.0,0000.54,0000.86,0000.33
2021-11-30 04:45:00,,0827.5,5.01,0.00,30.0,29.0,00.0,39.0,31.6,11.0,0000.0,0000.54,0001.20,0000.34
2021-11-30 04:46:00,,0827.5,5.00,0.00,29.9,29.0,00.0,39.0,31.6,11.0,0000.0,0000.55,0001.34,0000.33
2021-11-30 04:47:00,,0827.5,5.00,0.00,29.9,29.0,00.0,39.0,31.5,11.1,0000.0,0000.49,0001.24,0000.33
2021-11-30 04:48:00,,0827.5,5.00,0.00,29.9,29.0,00.0,39.0,31.5,11.1,0000.0,0000.48,0001.21,0000.32
2021-11-30 04:49:00,,0827.6,4.99,0.00,29.9,29.0,00.0,39.0,31.5,11.1,0000.0,0000.49,0001.35,0000.32
2021-11-30 04:50:00,,0827.6,5.00,0.00,29.9,29.0,00.0,39.0,31.5,11.1,0000.0,0000.50,0001.39,0000.32
2021-11-30 04:51:00,,0827.6,4.99,0.00,29.9,28.9,00.0,39.0,31.5,11.0,0000.0,0000.50,0001.39,0000.32
2021-11-30 04:52:00,,0827.5,5.00,0.00,29.9,28.9,00.0,39.0,31.5,11.0,0000.0,0000.50,0001.34,0000.32
2021-11-30 04:53:00,,0827.5,4.99,0.00,29.9,28.9,00.0,39.0,31.5,11.0,0000.0,0000.51,0001.34,0000.32
2021-11-30 04:54:00,,0827.6,5.01,0.00,29.9,28.9,00.0,39.0,31.5,11.0,0000.0,0000.54,0001.44,0000.32
2021-11-30 04:55:00,,0827.7,5.00,0.00,29.9,28.9,00.0,39.0,31.5,11.0,0000.0,0000.54,0001.45,0000.32
2021-11-30 04:56:00,,0827.7,5.00,0.00,29.9,28.9,00.0,39.0,31.5,11.0,0000.0,0000.54,0001.16,0000.32
2021-11-30 04:57:00,,0827.7,4.99,0.00,29.9,28.9,00.0,39.0,31.5,11.0,0000.0,0000.53,0001.00,0000.32
2021-11-30 04:58:00,,0827.7,5.00,0.00,29.9,28.9,00.0,39.0,31.5,11.0,0000.0,0000.56,0001.08,0000.33
2021-11-30 04:59:00,,0827.7,5.00,0.00,29.9,28.9,00.0,39.0,31.5,11.0,0000.0,0000.59,0001.13,0000.33
